UB3APB-W1 Weather Reports


time (UTC)temp
F
wind
direction
speed
knots
gust
knots
rain 1hr
in
rain 24hr
in
rain mn
in
humidity
%
barometer
mb
20260906092820 59 0.0 0.0 0.00 0.00 0.00 8 983.9
20260906091705 60 0.0 0.0 0.00 0.00 0.00 8 983.7
20260906081039 59 0.0 0.0 0.00 0.00 0.00 8 983.4
20260906052638 57 0.0 0.0 0.00 0.00 0.00 9 982.9
20260906051625 57 0.0 0.0 0.00 0.00 0.00 9 982.9
20260906040417 56 0.0 0.0 0.00 0.00 0.00 9 982.8
20260906035828 56 0.0 0.0 0.00 0.00 0.00 9 982.8
20260906035326 56 0.0 0.0 0.00 0.00 0.00 9 982.7
20260906024621 56 0.0 0.0 0.00 0.00 0.00 9 982.3
20260906024115 56 0.0 0.0 0.00 0.00 0.00 9 982.3
20260906012821 56 0.0 0.0 0.00 0.00 0.00 9 982.1
20260906012221 56 0.0 0.0 0.00 0.00 0.00 9 982.1
20260906001022 57 0.0 0.0 0.00 0.00 0.00 9 981.9
20260906000433 57 0.0 0.0 0.00 0.00 0.00 9 981.9
20260905235423 57 0.0 0.0 0.00 0.00 0.00 8 981.8
20260905212222 58 0.0 0.0 0.00 0.00 0.00 8 981.6
20260905211630 58 0.0 0.0 0.00 0.00 0.00 8 981.6
20260905201019 58 0.0 0.0 0.00 0.00 0.00 8 981.2
20260905200421 58 0.0 0.0 0.00 0.00 0.00 8 981.2
20260905195821 58 0.0 0.0 0.00 0.00 0.00 8 981.2
20260905195221 59 0.0 0.0 0.00 0.00 0.00 8 981.3
20260905172821 60 0.0 0.0 0.00 0.00 0.00 8 980.9
20260905155825 61 0.0 0.0 0.00 0.00 0.00 8 980.0
20260905155314 61 0.0 0.0 0.00 0.00 0.00 8 979.9
20260905144629 63 0.0 0.0 0.00 0.00 0.00 7 979.1
20260905144129 63 0.0 0.0 0.00 0.00 0.00 7 979.0
20260905143622 63 0.0 0.0 0.00 0.00 0.00 7 978.9
20260905143113 63 0.0 0.0 0.00 0.00 0.00 7 978.8
20260905132825 64 0.0 0.0 0.00 0.00 0.00 7 978.2
20260905131623 64 0.0 0.0 0.00 0.00 0.00 7 977.9
20260905121022 61 0.0 0.0 0.00 0.00 0.00 8 977.1
20260905120422 62 0.0 0.0 0.00 0.00 0.00 8 977.1
20260905115823 62 0.0 0.0 0.00 0.00 0.00 8 977.0
20260905115222 63 0.0 0.0 0.00 0.00 0.00 8 976.8
20260905114715 63 0.0 0.0 0.00 0.00 0.00 8 976.7
20260905104624 64 0.0 0.0 0.00 0.00 0.00 8 975.4
20260905104024 64 0.0 0.0 0.00 0.00 0.00 8 975.3